This demonstration page uses our WeatherBlox Daily Observations layout. Learn more.

Left ArrowRight Arrow

39.01783, -85.05884

Hourly Observations for May 18, 2021

Temp ( °F °C ) Dew Point ( °F °C ) Humidity (%) Winds ( mph kmh ) Pressure ( in mb ) Visibility ( mi km ) Precip ( " mm )
12:52 am 00:52 Cloudy 61 16.1 56 13.3 84 84 E 7 11 30.21 1023 10 16.0934 N/A
1:52 am 01:52 Cloudy 60 15.6 56 13.3 86 86 E 6 9 30.21 1023 10 16.0934 N/A
2:36 am 02:36 Cloudy 60 15.6 56 13.3 86 86 E 6 9 30.22 1023 10 16.0934 N/A
2:52 am 02:52 Cloudy 60 15.6 56 13.3 86 86 E 7 11 30.21 1023 10 16.0934 N/A
3:25 am 03:25 Cloudy 59 15 56 13.3 90 90 ESE 6 9 30.21 1023 8 12.87472 N/A
3:52 am 03:52 Cloudy 59 15 56 13.3 90 90 E 6 9 30.2 1023 8 12.87472 N/A
4:48 am 04:48 Cloudy 59 15 55 13 88 88 E 7 11 30.22 1023 7 11.26538 N/A
4:52 am 04:52 Cloudy 59 15 56 13.3 90 90 E 8 13 30.21 1023 7 11.26538 N/A
5:52 am 05:52 Cloudy with Mist and Fog 59 15 56 13.3 90 90 E 6 9 30.22 1024 6 9.65604 N/A
6:00 am 06:00 Mostly Cloudy with Mist and Fog 59 15 56 13.3 90 90 ENE 5 7 30.23 1024 3 4.82802 N/A
6:44 am 06:44 Cloudy with Mist and Fog 60 15.6 56 13.3 86 86 E 6 9 30.25 1024 3 4.82802 N/A
6:52 am 06:52 Cloudy with Mist and Fog 59 15 56 13.3 90 90 ENE 9 15 30.24 1024 3 4.82802 N/A
7:09 am 07:09 Cloudy with Mist and Fog 60 15.6 56 13.3 86 86 E 7 11 30.25 1024 3 4.82802 N/A
7:45 am 07:45 Cloudy with Mist and Fog 60 15.6 57 13.9 90 90 E 5 7 30.28 1025 3 4.82802 N/A
7:52 am 07:52 Cloudy with Mist and Fog 60 15.6 57 13.9 90 90 E 5 7 30.27 1025 3 4.82802 N/A
8:52 am 08:52 Cloudy with Mist and Fog 61 16.1 58 14.4 90 90 SE 8 13 30.29 1026 3 4.82802 N/A
9:08 am 09:08 Cloudy with Light Rain 61 16.1 58 14.4 90 90 SE 6 9 30.3 1026 3 4.82802 0.001 0.001
9:52 am 09:52 Cloudy with Light Rain 62 16.7 58 14.4 86 86 ESE 8 13 30.29 1026 3 4.82802 0.001 0.001
10:52 am 10:52 Cloudy with Mist and Fog 63 17.2 59 15 87 87 ESE 8 13 30.29 1026 3 4.82802 0.001 0.001
11:52 am 11:52 Cloudy 66 18.9 58 14.4 75 75 SE 12 19 30.29 1026 8 12.87472 N/A
12:52 pm 12:52 Cloudy 71 21.7 59 15 66 66 E 10 17 30.29 1026 10 16.0934 N/A
1:52 pm 13:52 Mostly Cloudy 74 23.3 57 13.9 56 56 ESE 8 13 30.27 1025 10 16.0934 N/A
2:52 pm 14:52 Mostly Cloudy 77 25 56 13.3 48 48 ESE 12 19 30.24 1024 10 16.0934 N/A
3:52 pm 15:52 Mostly Cloudy 78 25.6 55 12.8 45 45 SE 15 24 30.23 1024 10 16.0934 N/A
4:52 pm 16:52 Mostly Cloudy 78 25.6 56 13.3 47 47 SSE 12 19 30.21 1023 10 16.0934 N/A
5:52 pm 17:52 Mostly Cloudy 78 25.6 55 12.8 45 45 SE 10 17 30.19 1023 10 16.0934 N/A
6:52 pm 18:52 Mostly Cloudy 77 25 55 12.8 47 47 ESE 14 22 30.19 1022 10 16.0934 N/A
7:52 pm 19:52 Mostly Cloudy 75 23.9 56 13.3 52 52 ESE 9 15 30.19 1022 10 16.0934 N/A
8:52 pm 20:52 Mostly Cloudy 71 21.7 56 13.3 59 59 SE 9 15 30.2 1023 10 16.0934 N/A
9:52 pm 21:52 Mostly Cloudy 69 20.6 56 13.3 63 63 ESE 7 11 30.22 1023 10 16.0934 N/A
10:52 pm 22:52 Mostly Cloudy 69 20.6 56 13.3 63 63 SE 9 15 30.23 1024 10 16.0934 N/A
11:52 pm 23:52 Mostly Cloudy 67 19.4 56 13.3 68 68 SE 8 13 30.23 1024 10 16.0934 N/A

Powered by AerisWeather